7 * 24
多渠道服务支持
爱因斯坦探针(Einstein Probe)是一颗由中国研制的X射线天文卫星,旨在探测宇宙中的暂现天体和变源现象。该卫星搭载高灵敏度X射线望远镜,能够实时监测宇宙中的高能事件,如超新星爆发、黑洞吸积和中子星活动等。其主要任务是研究宇宙中极端物理条件下的天体现象,提升人类对高能天体物理过程的理解。该卫星的发射将为天文学研究提供宝贵的数据支持。
中国
(CN)
| 数据来源 | 国际轨道数据 |
| 星历时间: | 2026-06-27T14:26:14+0800 8小时前 查看轨道信息 |
| 半长轴: | 6939.092km |
| 偏心率: | 0.0009387 |
| 轨道倾角: | 28.997° |
| 近地点辐角 | 320.356° |
| 升交点赤经 | 147.897° |
| 平近点角 | 39.635° |
| 近地点: | 554.441km |
| 远地点: | 567.469km |
| 周期: | 95.877分钟 |
| 每日圈数: | 15.01927 |